owner,sensor,date,latitude,longitude,air_pressure(mBar),qcFlag 
WAVCIS,ioos:station:WAVCIS:CSI06:1,2013-09-03T21:00:00Z,28.8667,-90.4833,1012.76,11111222 
WAVCIS,ioos:station:WAVCIS:CSI06:1,2013-09-03T22:00:00Z,28.8667,-90.4833,1012.64,11111222 
WAVCIS,ioos:station:WAVCIS:CSI06:1,2013-09-03T23:00:00Z,28.8667,-90.4833,1013.04,11111222 
WAVCIS,ioos:station:WAVCIS:CSI06:1,2013-09-04T00:00:00Z,28.8667,-90.4833,1013.98,11111222 
WAVCIS,ioos:station:WAVCIS:CSI06:1,2013-09-04T01:00:00Z,28.8667,-90.4833,1013.82,11111222 
WAVCIS,ioos:station:WAVCIS:CSI06:1,2013-09-04T02:00:00Z,28.8667,-90.4833,1014.25,11111222 
WAVCIS,ioos:station:WAVCIS:CSI06:1,2013-09-04T03:00:00Z,28.8667,-90.4833,1015.11,11111222 
WAVCIS,ioos:station:WAVCIS:CSI06:1,2013-09-04T04:00:00Z,28.8667,-90.4833,1014.63,11111222 
WAVCIS,ioos:station:WAVCIS:CSI06:1,2013-09-04T05:00:00Z,28.8667,-90.4833,1014.27,11111222 
WAVCIS,ioos:station:WAVCIS:CSI06:1,2013-09-04T06:00:00Z,28.8667,-90.4833,1013.73,11111222 
WAVCIS,ioos:station:WAVCIS:CSI06:1,2013-09-04T07:00:00Z,28.8667,-90.4833,1013.73,11111222 
WAVCIS,ioos:station:WAVCIS:CSI06:1,2013-09-04T08:00:00Z,28.8667,-90.4833,1013.75,11111222 
WAVCIS,ioos:station:WAVCIS:CSI06:1,2013-09-04T09:00:00Z,28.8667,-90.4833,1014.03,11111222 
WAVCIS,ioos:station:WAVCIS:CSI06:1,2013-09-04T10:00:00Z,28.8667,-90.4833,1014.21,11111222 
WAVCIS,ioos:station:WAVCIS:CSI06:1,2013-09-04T11:00:00Z,28.8667,-90.4833,1014.66,11111222 
WAVCIS,ioos:station:WAVCIS:CSI06:1,2013-09-04T12:00:00Z,28.8667,-90.4833,1015.32,11111222 
WAVCIS,ioos:station:WAVCIS:CSI06:1,2013-09-04T13:00:00Z,28.8667,-90.4833,1015.86,11111222 
WAVCIS,ioos:station:WAVCIS:CSI06:1,2013-09-04T14:00:00Z,28.8667,-90.4833,1016.71,11111222 
WAVCIS,ioos:station:WAVCIS:CSI06:1,2013-09-04T15:00:00Z,28.8667,-90.4833,1017.17,11111222 
WAVCIS,ioos:station:WAVCIS:CSI06:1,2013-09-04T16:00:00Z,28.8667,-90.4833,1017.54,11111222 
WAVCIS,ioos:station:WAVCIS:CSI06:1,2013-09-04T17:00:00Z,28.8667,-90.4833,1017.41,11111222 
WAVCIS,ioos:station:WAVCIS:CSI06:1,2013-09-04T18:00:00Z,28.8667,-90.4833,1017.1,11111222 
WAVCIS,ioos:station:WAVCIS:CSI06:1,2013-09-04T19:00:00Z,28.8667,-90.4833,1016.36,11111222 
WAVCIS,ioos:station:WAVCIS:CSI06:1,2013-09-04T20:00:00Z,28.8667,-90.4833,1016.11,11111222 
WAVCIS,ioos:station:WAVCIS:CSI06:1,2013-09-04T21:00:00Z,28.8667,-90.4833,1015.6,11111222 
WAVCIS,ioos:station:WAVCIS:CSI06:1,2013-09-04T22:00:00Z,28.8667,-90.4833,1015.39,11111222 
WAVCIS,ioos:station:WAVCIS:CSI06:1,2013-09-04T23:00:00Z,28.8667,-90.4833,1015.39,11111222 
WAVCIS,ioos:station:WAVCIS:CSI06:1,2013-09-05T00:00:00Z,28.8667,-90.4833,1015.84,11111222 
WAVCIS,ioos:station:WAVCIS:CSI06:1,2013-09-05T01:00:00Z,28.8667,-90.4833,1015.85,11111222 
WAVCIS,ioos:station:WAVCIS:CSI06:1,2013-09-05T02:00:00Z,28.8667,-90.4833,1016.34,11111222 
WAVCIS,ioos:station:WAVCIS:CSI06:1,2013-09-05T03:00:00Z,28.8667,-90.4833,1016.66,11111222 
WAVCIS,ioos:station:WAVCIS:CSI06:1,2013-09-05T04:00:00Z,28.8667,-90.4833,1016.68,11111222 
WAVCIS,ioos:station:WAVCIS:CSI06:1,2013-09-05T05:00:00Z,28.8667,-90.4833,1016.63,11111222 
WAVCIS,ioos:station:WAVCIS:CSI06:1,2013-09-05T06:00:00Z,28.8667,-90.4833,1016.59,11111222 
WAVCIS,ioos:station:WAVCIS:CSI06:1,2013-09-05T07:00:00Z,28.8667,-90.4833,1016.43,11111222 
WAVCIS,ioos:station:WAVCIS:CSI06:1,2013-09-05T08:00:00Z,28.8667,-90.4833,1016.12,11111222 
WAVCIS,ioos:station:WAVCIS:CSI06:1,2013-09-05T09:00:00Z,28.8667,-90.4833,1016.23,11111222 
WAVCIS,ioos:station:WAVCIS:CSI06:1,2013-09-05T10:00:00Z,28.8667,-90.4833,1016.56,11111222 
WAVCIS,ioos:station:WAVCIS:CSI06:1,2013-09-05T11:00:00Z,28.8667,-90.4833,1016.76,11111222 
WAVCIS,ioos:station:WAVCIS:CSI06:1,2013-09-05T12:00:00Z,28.8667,-90.4833,1017.24,11111222 
WAVCIS,ioos:station:WAVCIS:CSI06:1,2013-09-05T13:00:00Z,28.8667,-90.4833,1017.53,11111222 
WAVCIS,ioos:station:WAVCIS:CSI06:1,2013-09-05T14:00:00Z,28.8667,-90.4833,1017.67,11111222 
WAVCIS,ioos:station:WAVCIS:CSI06:1,2013-09-05T15:00:00Z,28.8667,-90.4833,1018.15,11111222 
WAVCIS,ioos:station:WAVCIS:CSI06:1,2013-09-05T16:00:00Z,28.8667,-90.4833,1018.66,11111222 
WAVCIS,ioos:station:WAVCIS:CSI06:1,2013-09-05T17:00:00Z,28.8667,-90.4833,1018.47,11111222 
WAVCIS,ioos:station:WAVCIS:CSI06:1,2013-09-05T18:00:00Z,28.8667,-90.4833,1017.92,11111222 
WAVCIS,ioos:station:WAVCIS:CSI06:1,2013-09-05T19:00:00Z,28.8667,-90.4833,1017.27,11111222 
WAVCIS,ioos:station:WAVCIS:CSI06:1,2013-09-05T20:00:00Z,28.8667,-90.4833,1016.84,11111222 
WAVCIS,ioos:station:WAVCIS:CSI06:1,2013-09-05T21:00:00Z,28.8667,-90.4833,1016.73,11111222 
WAVCIS,ioos:station:WAVCIS:CSI06:1,2013-09-05T22:00:00Z,28.8667,-90.4833,1016.62,11111222 
WAVCIS,ioos:station:WAVCIS:CSI06:1,2013-09-05T23:00:00Z,28.8667,-90.4833,1016.74,11111222 
WAVCIS,ioos:station:WAVCIS:CSI06:1,2013-09-06T00:00:00Z,28.8667,-90.4833,1016.42,11111222 
WAVCIS,ioos:station:WAVCIS:CSI06:1,2013-09-06T01:00:00Z,28.8667,-90.4833,1016.31,11111222 
WAVCIS,ioos:station:WAVCIS:CSI06:1,2013-09-06T02:00:00Z,28.8667,-90.4833,1016.99,11111222 
WAVCIS,ioos:station:WAVCIS:CSI06:1,2013-09-06T03:00:00Z,28.8667,-90.4833,1017.37,11111222 
WAVCIS,ioos:station:WAVCIS:CSI06:1,2013-09-06T04:00:00Z,28.8667,-90.4833,1017.37,11111222 
WAVCIS,ioos:station:WAVCIS:CSI06:1,2013-09-06T05:00:00Z,28.8667,-90.4833,1017.09,11111222 
WAVCIS,ioos:station:WAVCIS:CSI06:1,2013-09-06T06:00:00Z,28.8667,-90.4833,1016.62,11111222 
WAVCIS,ioos:station:WAVCIS:CSI06:1,2013-09-06T07:00:00Z,28.8667,-90.4833,1016.45,11111222 
WAVCIS,ioos:station:WAVCIS:CSI06:1,2013-09-06T08:00:00Z,28.8667,-90.4833,1016.19,11111222 
WAVCIS,ioos:station:WAVCIS:CSI06:1,2013-09-06T09:00:00Z,28.8667,-90.4833,1016.06,11111222 
WAVCIS,ioos:station:WAVCIS:CSI06:1,2013-09-06T10:00:00Z,28.8667,-90.4833,1016.14,11111222 
WAVCIS,ioos:station:WAVCIS:CSI06:1,2013-09-06T11:00:00Z,28.8667,-90.4833,1016.47,11111222 
WAVCIS,ioos:station:WAVCIS:CSI06:1,2013-09-06T12:00:00Z,28.8667,-90.4833,1016.86,11111222 
WAVCIS,ioos:station:WAVCIS:CSI06:1,2013-09-06T13:00:00Z,28.8667,-90.4833,1017.32,11111222 
WAVCIS,ioos:station:WAVCIS:CSI06:1,2013-09-06T14:00:00Z,28.8667,-90.4833,1017.47,11111222 
WAVCIS,ioos:station:WAVCIS:CSI06:1,2013-09-06T15:00:00Z,28.8667,-90.4833,1018.01,11111222 
WAVCIS,ioos:station:WAVCIS:CSI06:1,2013-09-06T16:00:00Z,28.8667,-90.4833,1018.07,11111222 
WAVCIS,ioos:station:WAVCIS:CSI06:1,2013-09-06T17:00:00Z,28.8667,-90.4833,1017.93,11111222 
WAVCIS,ioos:station:WAVCIS:CSI06:1,2013-09-06T18:00:00Z,28.8667,-90.4833,1017.5,11111222 
WAVCIS,ioos:station:WAVCIS:CSI06:1,2013-09-06T19:00:00Z,28.8667,-90.4833,1016.67,11111222 
WAVCIS,ioos:station:WAVCIS:CSI06:1,2013-09-06T20:00:00Z,28.8667,-90.4833,1016.22,11111222 
WAVCIS,ioos:station:WAVCIS:CSI06:1,2013-09-06T21:00:00Z,28.8667,-90.4833,1015.45,11111222 
WAVCIS,ioos:station:WAVCIS:CSI06:1,2013-09-06T22:00:00Z,28.8667,-90.4833,1015.21,11111222 
WAVCIS,ioos:station:WAVCIS:CSI06:1,2013-09-06T23:00:00Z,28.8667,-90.4833,1015.17,11111222 
WAVCIS,ioos:station:WAVCIS:CSI06:1,2013-09-07T00:00:00Z,28.8667,-90.4833,1014.93,11111222 
WAVCIS,ioos:station:WAVCIS:CSI06:1,2013-09-07T01:00:00Z,28.8667,-90.4833,1014.91,11111222 
WAVCIS,ioos:station:WAVCIS:CSI06:1,2013-09-07T02:00:00Z,28.8667,-90.4833,1015.33,11111222 
WAVCIS,ioos:station:WAVCIS:CSI06:1,2013-09-07T03:00:00Z,28.8667,-90.4833,1015.35,11111222 
WAVCIS,ioos:station:WAVCIS:CSI06:1,2013-09-07T04:00:00Z,28.8667,-90.4833,1015.66,11111222 
WAVCIS,ioos:station:WAVCIS:CSI06:1,2013-09-07T05:00:00Z,28.8667,-90.4833,1015.35,11111222 
WAVCIS,ioos:station:WAVCIS:CSI06:1,2013-09-07T06:00:00Z,28.8667,-90.4833,1015.15,11111222 
WAVCIS,ioos:station:WAVCIS:CSI06:1,2013-09-07T07:00:00Z,28.8667,-90.4833,1014.79,11111222 
WAVCIS,ioos:station:WAVCIS:CSI06:1,2013-09-07T08:00:00Z,28.8667,-90.4833,1014.81,11111222 
WAVCIS,ioos:station:WAVCIS:CSI06:1,2013-09-07T09:00:00Z,28.8667,-90.4833,1014.29,11111222 
WAVCIS,ioos:station:WAVCIS:CSI06:1,2013-09-07T10:00:00Z,28.8667,-90.4833,1014.28,11111222 
WAVCIS,ioos:station:WAVCIS:CSI06:1,2013-09-07T11:00:00Z,28.8667,-90.4833,1014.77,11111222 
WAVCIS,ioos:station:WAVCIS:CSI06:1,2013-09-07T12:00:00Z,28.8667,-90.4833,1015.13,11111222 
WAVCIS,ioos:station:WAVCIS:CSI06:1,2013-09-07T13:00:00Z,28.8667,-90.4833,1015.76,11111222 
WAVCIS,ioos:station:WAVCIS:CSI06:1,2013-09-07T14:00:00Z,28.8667,-90.4833,1016.05,11111222 
WAVCIS,ioos:station:WAVCIS:CSI06:1,2013-09-07T15:00:00Z,28.8667,-90.4833,1016.12,11111222 
WAVCIS,ioos:station:WAVCIS:CSI06:1,2013-09-07T16:00:00Z,28.8667,-90.4833,1016.67,11111222 
WAVCIS,ioos:station:WAVCIS:CSI06:1,2013-09-07T17:00:00Z,28.8667,-90.4833,1016.36,11111222 
WAVCIS,ioos:station:WAVCIS:CSI06:1,2013-09-07T18:00:00Z,28.8667,-90.4833,1016.05,11111222 
WAVCIS,ioos:station:WAVCIS:CSI06:1,2013-09-07T19:00:00Z,28.8667,-90.4833,1015.53,11111222 
WAVCIS,ioos:station:WAVCIS:CSI06:1,2013-09-07T20:00:00Z,28.8667,-90.4833,1015.22,11111222 
WAVCIS,ioos:station:WAVCIS:CSI06:1,2013-09-07T21:00:00Z,28.8667,-90.4833,1014.5,11111222 
WAVCIS,ioos:station:WAVCIS:CSI06:1,2013-09-07T22:00:00Z,28.8667,-90.4833,1014.86,11111222 
WAVCIS,ioos:station:WAVCIS:CSI06:1,2013-09-07T23:00:00Z,28.8667,-90.4833,1014.65,11111222 
WAVCIS,ioos:station:WAVCIS:CSI06:1,2013-09-08T00:00:00Z,28.8667,-90.4833,1014.26,11111222 
WAVCIS,ioos:station:WAVCIS:CSI06:1,2013-09-08T01:00:00Z,28.8667,-90.4833,1014.5,11111222 
WAVCIS,ioos:station:WAVCIS:CSI06:1,2013-09-08T02:00:00Z,28.8667,-90.4833,1014.78,11111222 
WAVCIS,ioos:station:WAVCIS:CSI06:1,2013-09-08T03:00:00Z,28.8667,-90.4833,1015.11,11111222 
WAVCIS,ioos:station:WAVCIS:CSI06:1,2013-09-08T04:00:00Z,28.8667,-90.4833,1014.82,11111222 
WAVCIS,ioos:station:WAVCIS:CSI06:1,2013-09-08T05:00:00Z,28.8667,-90.4833,1014.65,11111222 
WAVCIS,ioos:station:WAVCIS:CSI06:1,2013-09-08T06:00:00Z,28.8667,-90.4833,1014.15,11111222 
WAVCIS,ioos:station:WAVCIS:CSI06:1,2013-09-08T07:00:00Z,28.8667,-90.4833,1013.66,11111222 
WAVCIS,ioos:station:WAVCIS:CSI06:1,2013-09-08T08:00:00Z,28.8667,-90.4833,1012.81,11111222 
WAVCIS,ioos:station:WAVCIS:CSI06:1,2013-09-08T09:00:00Z,28.8667,-90.4833,1012.91,11111222 
WAVCIS,ioos:station:WAVCIS:CSI06:1,2013-09-08T10:00:00Z,28.8667,-90.4833,1013.03,11111222 
WAVCIS,ioos:station:WAVCIS:CSI06:1,2013-09-08T11:00:00Z,28.8667,-90.4833,1013.1,11111222 
WAVCIS,ioos:station:WAVCIS:CSI06:1,2013-09-08T12:00:00Z,28.8667,-90.4833,1013.74,11111222 
WAVCIS,ioos:station:WAVCIS:CSI06:1,2013-09-08T13:00:00Z,28.8667,-90.4833,1014.36,11111222 
WAVCIS,ioos:station:WAVCIS:CSI06:1,2013-09-08T14:00:00Z,28.8667,-90.4833,1014.68,11111222 
WAVCIS,ioos:station:WAVCIS:CSI06:1,2013-09-08T15:00:00Z,28.8667,-90.4833,1014.67,11111222 
WAVCIS,ioos:station:WAVCIS:CSI06:1,2013-09-08T16:00:00Z,28.8667,-90.4833,1014.61,11111222 
WAVCIS,ioos:station:WAVCIS:CSI06:1,2013-09-08T17:00:00Z,28.8667,-90.4833,1014.63,11111222 
WAVCIS,ioos:station:WAVCIS:CSI06:1,2013-09-08T18:00:00Z,28.8667,-90.4833,1014.52,11111222 
WAVCIS,ioos:station:WAVCIS:CSI06:1,2013-09-08T19:00:00Z,28.8667,-90.4833,1013.87,11111222 
WAVCIS,ioos:station:WAVCIS:CSI06:1,2013-09-08T20:00:00Z,28.8667,-90.4833,1013.42,11111222 
WAVCIS,ioos:station:WAVCIS:CSI06:1,2013-09-08T21:00:00Z,28.8667,-90.4833,1013.17,11111222 
WAVCIS,ioos:station:WAVCIS:CSI06:1,2013-09-08T22:00:00Z,28.8667,-90.4833,1013.29,11111222 
WAVCIS,ioos:station:WAVCIS:CSI06:1,2013-09-08T23:00:00Z,28.8667,-90.4833,1013.04,11111222 
WAVCIS,ioos:station:WAVCIS:CSI06:1,2013-09-09T00:00:00Z,28.8667,-90.4833,1013.38,11111222 
WAVCIS,ioos:station:WAVCIS:CSI06:1,2013-09-09T01:00:00Z,28.8667,-90.4833,1013.7,11111222 
WAVCIS,ioos:station:WAVCIS:CSI06:1,2013-09-09T02:00:00Z,28.8667,-90.4833,1013.68,11111222 
WAVCIS,ioos:station:WAVCIS:CSI06:1,2013-09-09T03:00:00Z,28.8667,-90.4833,1013.96,11111222 
WAVCIS,ioos:station:WAVCIS:CSI06:1,2013-09-09T04:00:00Z,28.8667,-90.4833,1014.18,11111222 
WAVCIS,ioos:station:WAVCIS:CSI06:1,2013-09-09T05:00:00Z,28.8667,-90.4833,1013.85,11111222 
WAVCIS,ioos:station:WAVCIS:CSI06:1,2013-09-09T06:00:00Z,28.8667,-90.4833,1013.62,11111222 
WAVCIS,ioos:station:WAVCIS:CSI06:1,2013-09-09T07:00:00Z,28.8667,-90.4833,1013.41,11111222 
WAVCIS,ioos:station:WAVCIS:CSI06:1,2013-09-09T08:00:00Z,28.8667,-90.4833,1013.29,11111222 
WAVCIS,ioos:station:WAVCIS:CSI06:1,2013-09-09T09:00:00Z,28.8667,-90.4833,1013.29,11111222 
WAVCIS,ioos:station:WAVCIS:CSI06:1,2013-09-09T10:00:00Z,28.8667,-90.4833,1013.36,11111222 
WAVCIS,ioos:station:WAVCIS:CSI06:1,2013-09-09T11:00:00Z,28.8667,-90.4833,1013.78,11111222 
WAVCIS,ioos:station:WAVCIS:CSI06:1,2013-09-09T12:00:00Z,28.8667,-90.4833,1014.08,11111222 
WAVCIS,ioos:station:WAVCIS:CSI06:1,2013-09-09T13:00:00Z,28.8667,-90.4833,1014.83,11111222 
WAVCIS,ioos:station:WAVCIS:CSI06:1,2013-09-09T14:00:00Z,28.8667,-90.4833,1015.39,11111222 
WAVCIS,ioos:station:WAVCIS:CSI06:1,2013-09-09T15:00:00Z,28.8667,-90.4833,1015.98,11111222 
WAVCIS,ioos:station:WAVCIS:CSI06:1,2013-09-09T16:00:00Z,28.8667,-90.4833,1016.19,11111222 
WAVCIS,ioos:station:WAVCIS:CSI06:1,2013-09-09T17:00:00Z,28.8667,-90.4833,1016.2,11111222 
WAVCIS,ioos:station:WAVCIS:CSI06:1,2013-09-09T18:00:00Z,28.8667,-90.4833,1016.02,11111222 
WAVCIS,ioos:station:WAVCIS:CSI06:1,2013-09-09T19:00:00Z,28.8667,-90.4833,1015.57,11111222 
WAVCIS,ioos:station:WAVCIS:CSI06:1,2013-09-09T20:00:00Z,28.8667,-90.4833,1014.97,11111222 
WAVCIS,ioos:station:WAVCIS:CSI06:1,2013-09-09T21:00:00Z,28.8667,-90.4833,1014.75,11111222 
WAVCIS,ioos:station:WAVCIS:CSI06:1,2013-09-09T22:00:00Z,28.8667,-90.4833,1014.63,11111222 
WAVCIS,ioos:station:WAVCIS:CSI06:1,2013-09-09T23:00:00Z,28.8667,-90.4833,1014.55,11111222 
WAVCIS,ioos:station:WAVCIS:CSI06:1,2013-09-10T00:00:00Z,28.8667,-90.4833,1014.79,11111222 
WAVCIS,ioos:station:WAVCIS:CSI06:1,2013-09-10T01:00:00Z,28.8667,-90.4833,1014.84,11111222 
WAVCIS,ioos:station:WAVCIS:CSI06:1,2013-09-10T02:00:00Z,28.8667,-90.4833,1015.27,11111222 
WAVCIS,ioos:station:WAVCIS:CSI06:1,2013-09-10T03:00:00Z,28.8667,-90.4833,1015.38,11111222 
WAVCIS,ioos:station:WAVCIS:CSI06:1,2013-09-10T04:00:00Z,28.8667,-90.4833,1015.21,11111222 
WAVCIS,ioos:station:WAVCIS:CSI06:1,2013-09-10T05:00:00Z,28.8667,-90.4833,1015.09,11111222 
WAVCIS,ioos:station:WAVCIS:CSI06:1,2013-09-10T06:00:00Z,28.8667,-90.4833,1014.97,11111222 
WAVCIS,ioos:station:WAVCIS:CSI06:1,2013-09-10T07:00:00Z,28.8667,-90.4833,1014.91,11111222 
WAVCIS,ioos:station:WAVCIS:CSI06:1,2013-09-10T08:00:00Z,28.8667,-90.4833,1014.86,11111222 
WAVCIS,ioos:station:WAVCIS:CSI06:1,2013-09-10T09:00:00Z,28.8667,-90.4833,1015.1,11111222 
WAVCIS,ioos:station:WAVCIS:CSI06:1,2013-09-10T10:00:00Z,28.8667,-90.4833,1015.27,11111222 
WAVCIS,ioos:station:WAVCIS:CSI06:1,2013-09-10T11:00:00Z,28.8667,-90.4833,1015.79,11111222 
WAVCIS,ioos:station:WAVCIS:CSI06:1,2013-09-10T12:00:00Z,28.8667,-90.4833,1016.3,11111222 
WAVCIS,ioos:station:WAVCIS:CSI06:1,2013-09-10T13:00:00Z,28.8667,-90.4833,1017.15,11111222 
WAVCIS,ioos:station:WAVCIS:CSI06:1,2013-09-10T14:00:00Z,28.8667,-90.4833,1017.39,11111222 
WAVCIS,ioos:station:WAVCIS:CSI06:1,2013-09-10T15:00:00Z,28.8667,-90.4833,1017.71,11111222 
WAVCIS,ioos:station:WAVCIS:CSI06:1,2013-09-10T16:00:00Z,28.8667,-90.4833,1017.76,11111222 
WAVCIS,ioos:station:WAVCIS:CSI06:1,2013-09-10T17:00:00Z,28.8667,-90.4833,1017.86,11111222 
WAVCIS,ioos:station:WAVCIS:CSI06:1,2013-09-10T18:00:00Z,28.8667,-90.4833,1017.81,11111222 
WAVCIS,ioos:station:WAVCIS:CSI06:1,2013-09-10T19:00:00Z,28.8667,-90.4833,1017.44,11111222 
WAVCIS,ioos:station:WAVCIS:CSI06:1,2013-09-10T20:00:00Z,28.8667,-90.4833,1016.78,11111222 
WAVCIS,ioos:station:WAVCIS:CSI06:1,2013-09-10T21:00:00Z,28.8667,-90.4833,1016.14,11111222 
WAVCIS,ioos:station:WAVCIS:CSI06:1,2013-09-10T22:00:00Z,28.8667,-90.4833,1015.74,11111222 
WAVCIS,ioos:station:WAVCIS:CSI06:1,2013-09-10T23:00:00Z,28.8667,-90.4833,1015.73,11111222 
WAVCIS,ioos:station:WAVCIS:CSI06:1,2013-09-11T00:00:00Z,28.8667,-90.4833,1016.12,11111222 
WAVCIS,ioos:station:WAVCIS:CSI06:1,2013-09-11T01:00:00Z,28.8667,-90.4833,1016.3,11111222 
WAVCIS,ioos:station:WAVCIS:CSI06:1,2013-09-11T02:00:00Z,28.8667,-90.4833,1016.67,11111222 
WAVCIS,ioos:station:WAVCIS:CSI06:1,2013-09-11T03:00:00Z,28.8667,-90.4833,1017.08,11111222 
WAVCIS,ioos:station:WAVCIS:CSI06:1,2013-09-11T04:00:00Z,28.8667,-90.4833,1017.22,11111222 
WAVCIS,ioos:station:WAVCIS:CSI06:1,2013-09-11T05:00:00Z,28.8667,-90.4833,1016.95,11111222 
WAVCIS,ioos:station:WAVCIS:CSI06:1,2013-09-11T06:00:00Z,28.8667,-90.4833,1016.71,11111222 
WAVCIS,ioos:station:WAVCIS:CSI06:1,2013-09-11T07:00:00Z,28.8667,-90.4833,1016.49,11111222 
WAVCIS,ioos:station:WAVCIS:CSI06:1,2013-09-11T08:00:00Z,28.8667,-90.4833,1016.22,11111222 
WAVCIS,ioos:station:WAVCIS:CSI06:1,2013-09-11T09:00:00Z,28.8667,-90.4833,1016.02,11111222 
WAVCIS,ioos:station:WAVCIS:CSI06:1,2013-09-11T10:00:00Z,28.8667,-90.4833,1016.19,11111222 
WAVCIS,ioos:station:WAVCIS:CSI06:1,2013-09-11T11:00:00Z,28.8667,-90.4833,1016.45,11111222 
WAVCIS,ioos:station:WAVCIS:CSI06:1,2013-09-11T12:00:00Z,28.8667,-90.4833,1016.85,11111222 
WAVCIS,ioos:station:WAVCIS:CSI06:1,2013-09-11T13:00:00Z,28.8667,-90.4833,1017.11,11111222 
WAVCIS,ioos:station:WAVCIS:CSI06:1,2013-09-11T14:00:00Z,28.8667,-90.4833,1017.31,11111222 
WAVCIS,ioos:station:WAVCIS:CSI06:1,2013-09-11T15:00:00Z,28.8667,-90.4833,1017.55,11111222 
WAVCIS,ioos:station:WAVCIS:CSI06:1,2013-09-11T16:00:00Z,28.8667,-90.4833,1017.74,11111222 
WAVCIS,ioos:station:WAVCIS:CSI06:1,2013-09-11T17:00:00Z,28.8667,-90.4833,1017.96,11111222 
WAVCIS,ioos:station:WAVCIS:CSI06:1,2013-09-11T18:00:00Z,28.8667,-90.4833,1017.56,11111222 
WAVCIS,ioos:station:WAVCIS:CSI06:1,2013-09-11T19:00:00Z,28.8667,-90.4833,1016.98,11111222 
WAVCIS,ioos:station:WAVCIS:CSI06:1,2013-09-11T20:00:00Z,28.8667,-90.4833,1016.32,11111222 
WAVCIS,ioos:station:WAVCIS:CSI06:1,2013-09-11T21:00:00Z,28.8667,-90.4833,1015.98,11111222 
WAVCIS,ioos:station:WAVCIS:CSI06:1,2013-09-11T22:00:00Z,28.8667,-90.4833,1015.7,11111222 
WAVCIS,ioos:station:WAVCIS:CSI06:1,2013-09-11T23:00:00Z,28.8667,-90.4833,1015.44,11111222 
WAVCIS,ioos:station:WAVCIS:CSI06:1,2013-09-12T00:00:00Z,28.8667,-90.4833,1014.97,11111222 
WAVCIS,ioos:station:WAVCIS:CSI06:1,2013-09-12T01:00:00Z,28.8667,-90.4833,1015.37,11111222 
WAVCIS,ioos:station:WAVCIS:CSI06:1,2013-09-12T02:00:00Z,28.8667,-90.4833,1015.68,11111222 
WAVCIS,ioos:station:WAVCIS:CSI06:1,2013-09-12T03:00:00Z,28.8667,-90.4833,1016.02,11111222 
WAVCIS,ioos:station:WAVCIS:CSI06:1,2013-09-12T04:00:00Z,28.8667,-90.4833,1015.95,11111222 
WAVCIS,ioos:station:WAVCIS:CSI06:1,2013-09-12T05:00:00Z,28.8667,-90.4833,1015.55,11111222 
WAVCIS,ioos:station:WAVCIS:CSI06:1,2013-09-12T06:00:00Z,28.8667,-90.4833,1015.16,11111222 
WAVCIS,ioos:station:WAVCIS:CSI06:1,2013-09-12T07:00:00Z,28.8667,-90.4833,1014.93,11111222 
WAVCIS,ioos:station:WAVCIS:CSI06:1,2013-09-12T08:00:00Z,28.8667,-90.4833,1014.6,11111222 
WAVCIS,ioos:station:WAVCIS:CSI06:1,2013-09-12T09:00:00Z,28.8667,-90.4833,1014.35,11111222 
WAVCIS,ioos:station:WAVCIS:CSI06:1,2013-09-12T10:00:00Z,28.8667,-90.4833,1014.25,11111222 
WAVCIS,ioos:station:WAVCIS:CSI06:1,2013-09-12T11:00:00Z,28.8667,-90.4833,1014.24,11111222 
WAVCIS,ioos:station:WAVCIS:CSI06:1,2013-09-12T12:00:00Z,28.8667,-90.4833,1014.64,11111222 
WAVCIS,ioos:station:WAVCIS:CSI06:1,2013-09-12T13:00:00Z,28.8667,-90.4833,1014.95,11111222 
WAVCIS,ioos:station:WAVCIS:CSI06:1,2013-09-12T14:00:00Z,28.8667,-90.4833,1015.14,11111222 
WAVCIS,ioos:station:WAVCIS:CSI06:1,2013-09-12T15:00:00Z,28.8667,-90.4833,1015.47,11111222 
WAVCIS,ioos:station:WAVCIS:CSI06:1,2013-09-12T16:00:00Z,28.8667,-90.4833,1015.61,11111222 
WAVCIS,ioos:station:WAVCIS:CSI06:1,2013-09-12T17:00:00Z,28.8667,-90.4833,1015.24,11111222 
WAVCIS,ioos:station:WAVCIS:CSI06:1,2013-09-12T18:00:00Z,28.8667,-90.4833,1014.73,11111222 
WAVCIS,ioos:station:WAVCIS:CSI06:1,2013-09-12T19:00:00Z,28.8667,-90.4833,1014.2,11111222 
WAVCIS,ioos:station:WAVCIS:CSI06:1,2013-09-12T20:00:00Z,28.8667,-90.4833,1013.32,11111222 
WAVCIS,ioos:station:WAVCIS:CSI06:1,2013-09-12T21:00:00Z,28.8667,-90.4833,1012.79,11111222 
WAVCIS,ioos:station:WAVCIS:CSI06:1,2013-09-12T22:00:00Z,28.8667,-90.4833,1012.44,11111222 
WAVCIS,ioos:station:WAVCIS:CSI06:1,2013-09-12T23:00:00Z,28.8667,-90.4833,1012.24,11111222 
WAVCIS,ioos:station:WAVCIS:CSI06:1,2013-09-13T00:00:00Z,28.8667,-90.4833,1012.19,11111222 
WAVCIS,ioos:station:WAVCIS:CSI06:1,2013-09-13T01:00:00Z,28.8667,-90.4833,1012.34,11111222 
WAVCIS,ioos:station:WAVCIS:CSI06:1,2013-09-13T02:00:00Z,28.8667,-90.4833,1012.72,11111222 
WAVCIS,ioos:station:WAVCIS:CSI06:1,2013-09-13T03:00:00Z,28.8667,-90.4833,1013.11,11111222 
WAVCIS,ioos:station:WAVCIS:CSI06:1,2013-09-13T04:00:00Z,28.8667,-90.4833,1013.09,11111222 
WAVCIS,ioos:station:WAVCIS:CSI06:1,2013-09-13T05:00:00Z,28.8667,-90.4833,1012.77,11111222 
WAVCIS,ioos:station:WAVCIS:CSI06:1,2013-09-13T06:00:00Z,28.8667,-90.4833,1012.52,11111222 
WAVCIS,ioos:station:WAVCIS:CSI06:1,2013-09-13T07:00:00Z,28.8667,-90.4833,1012.02,11111222 
WAVCIS,ioos:station:WAVCIS:CSI06:1,2013-09-13T08:00:00Z,28.8667,-90.4833,1011.46,11111222 
WAVCIS,ioos:station:WAVCIS:CSI06:1,2013-09-13T09:00:00Z,28.8667,-90.4833,1011.31,11111222 
WAVCIS,ioos:station:WAVCIS:CSI06:1,2013-09-13T10:00:00Z,28.8667,-90.4833,1011.31,11111222 
WAVCIS,ioos:station:WAVCIS:CSI06:1,2013-09-13T11:00:00Z,28.8667,-90.4833,1011.37,11111222 
WAVCIS,ioos:station:WAVCIS:CSI06:1,2013-09-13T12:00:00Z,28.8667,-90.4833,1011.72,11111222 
WAVCIS,ioos:station:WAVCIS:CSI06:1,2013-09-13T13:00:00Z,28.8667,-90.4833,1011.76,11111222 
WAVCIS,ioos:station:WAVCIS:CSI06:1,2013-09-13T14:00:00Z,28.8667,-90.4833,1012.31,11111222 
WAVCIS,ioos:station:WAVCIS:CSI06:1,2013-09-13T15:00:00Z,28.8667,-90.4833,1012.67,11111222 
WAVCIS,ioos:station:WAVCIS:CSI06:1,2013-09-13T16:00:00Z,28.8667,-90.4833,1012.83,11111222 
WAVCIS,ioos:station:WAVCIS:CSI06:1,2013-09-13T17:00:00Z,28.8667,-90.4833,1012.7,11111222 
WAVCIS,ioos:station:WAVCIS:CSI06:1,2013-09-13T18:00:00Z,28.8667,-90.4833,1012.02,11111222 
WAVCIS,ioos:station:WAVCIS:CSI06:1,2013-09-13T19:00:00Z,28.8667,-90.4833,1011.22,11111222 
WAVCIS,ioos:station:WAVCIS:CSI06:1,2013-09-13T20:00:00Z,28.8667,-90.4833,1010.48,11111222 
WAVCIS,ioos:station:WAVCIS:CSI06:1,2013-09-13T21:00:00Z,28.8667,-90.4833,1009.81,11111222 
WAVCIS,ioos:station:WAVCIS:CSI06:1,2013-09-13T22:00:00Z,28.8667,-90.4833,1009.47,11111222 
WAVCIS,ioos:station:WAVCIS:CSI06:1,2013-09-13T23:00:00Z,28.8667,-90.4833,1009.67,11111222 
WAVCIS,ioos:station:WAVCIS:CSI06:1,2013-09-14T00:00:00Z,28.8667,-90.4833,1009.72,11111222 
WAVCIS,ioos:station:WAVCIS:CSI06:1,2013-09-14T01:00:00Z,28.8667,-90.4833,1010.12,11111222 
WAVCIS,ioos:station:WAVCIS:CSI06:1,2013-09-14T02:00:00Z,28.8667,-90.4833,1010.68,11111222 
WAVCIS,ioos:station:WAVCIS:CSI06:1,2013-09-14T03:00:00Z,28.8667,-90.4833,1010.58,11111222 
WAVCIS,ioos:station:WAVCIS:CSI06:1,2013-09-14T04:00:00Z,28.8667,-90.4833,1010.82,11111222 
WAVCIS,ioos:station:WAVCIS:CSI06:1,2013-09-14T05:00:00Z,28.8667,-90.4833,1010.69,11111222 
WAVCIS,ioos:station:WAVCIS:CSI06:1,2013-09-14T06:00:00Z,28.8667,-90.4833,1010.49,11111222 
WAVCIS,ioos:station:WAVCIS:CSI06:1,2013-09-14T07:00:00Z,28.8667,-90.4833,1010.3,11111222 
WAVCIS,ioos:station:WAVCIS:CSI06:1,2013-09-14T08:00:00Z,28.8667,-90.4833,1010.4,11111222 
WAVCIS,ioos:station:WAVCIS:CSI06:1,2013-09-14T09:00:00Z,28.8667,-90.4833,1010.38,11111222 
WAVCIS,ioos:station:WAVCIS:CSI06:1,2013-09-14T10:00:00Z,28.8667,-90.4833,1010.61,11111222 
WAVCIS,ioos:station:WAVCIS:CSI06:1,2013-09-14T11:00:00Z,28.8667,-90.4833,1010.8,11111222 
WAVCIS,ioos:station:WAVCIS:CSI06:1,2013-09-14T12:00:00Z,28.8667,-90.4833,1011.21,11111222 
WAVCIS,ioos:station:WAVCIS:CSI06:1,2013-09-14T13:00:00Z,28.8667,-90.4833,1011.63,11111222 
WAVCIS,ioos:station:WAVCIS:CSI06:1,2013-09-14T14:00:00Z,28.8667,-90.4833,1012.01,11111222 
WAVCIS,ioos:station:WAVCIS:CSI06:1,2013-09-14T15:00:00Z,28.8667,-90.4833,1012.44,11111222 
WAVCIS,ioos:station:WAVCIS:CSI06:1,2013-09-14T16:00:00Z,28.8667,-90.4833,1012.89,11111222 
WAVCIS,ioos:station:WAVCIS:CSI06:1,2013-09-14T17:00:00Z,28.8667,-90.4833,1012.82,11111222 
WAVCIS,ioos:station:WAVCIS:CSI06:1,2013-09-14T18:00:00Z,28.8667,-90.4833,1012.61,11111222 
WAVCIS,ioos:station:WAVCIS:CSI06:1,2013-09-14T19:00:00Z,28.8667,-90.4833,1012.33,11111222 